QPF
0.01 0.01 0.00 0.00 0.00 0.00 0.00 0.00 0.00 0.00 0.00 0.00 0.00 0.00 0.00 0.00 0.00 0.00 0.00 0.00 0.00 0.00 0.00 0.00 0.00 0.00 0.00 0.00 0.00 0.00 0.00 0.00 0.00 0.00 0.00 0.00 0.00 0.00 0.00 0.00 0.00 0.00 0.00 0.00
0.01 0.01 0.00 0.00 0.00 0.00 0.00 0.00 0.00 0.00 0.00 0.00 0.00 0.00 0.00 0.00 0.00 0.00 0.00 0.00 0.00 0.00 0.00 0.00 0.00 0.00 0.00 0.00 0.00 0.00 0.00 0.00 0.00 0.00 0.00 0.00 0.00 0.00 0.00 0.00 0.00 0.00 0.00 0.00
0.00 0.00 0.00 0.00 0.00 0.00 0.00 0.00 0.00 0.00 0.00 0.00 0.00 0.00 0.00 0.00 0.00 0.00 0.00 0.00 0.00 0.00 0.00 0.00 0.00 0.00 0.00 0.00 0.00 0.00 0.00 0.00 0.00 0.00 0.00 0.00 0.00 0.00 0.00 0.00 0.00 0.00 0.00 0.00
0.00 0.00 0.00 0.00 0.00 0.00 0.00 0.00 0.00 0.00 0.00 0.00 0.00 0.00 0.00 0.00 0.00 0.00 0.00 0.00 0.00 0.00 0.00 0.00 0.00 0.00 0.00 0.00 0.00 0.00 0.00 0.00 0.00 0.00 0.00 0.00 0.00 0.00 0.00 0.00 0.00 0.00 0.00 0.00
0.01 0.00 0.00 0.00 0.00 0.00 0.00 0.00 0.00 0.00 0.00 0.00 0.00 0.00 0.00 0.00 0.00 0.00 0.00 0.00 0.00 0.00 0.00 0.00 0.00 0.00 0.00 0.00 0.00 0.00 0.00 0.00 0.00 0.00 0.00 0.00 0.00 0.00 0.00 0.00 0.00 0.00 0.00 0.00
0.01 0.00 0.00 0.00 0.00 0.00 0.00 0.00 0.00 0.00 0.00 0.01 0.00 0.00 0.00 0.00 0.00 0.00 0.00 0.00 0.00 0.00 0.00 0.00 0.00 0.00 0.00 0.00 0.00 0.00 0.00 0.00 0.00 0.00 0.00 0.00 0.00 0.00 0.00 0.00 0.00 0.00 0.00 0.00
0.02 0.01 0.00 0.00 0.00 0.00 0.01 0.01 0.01 0.01 0.01 0.00 0.00 0.00 0.00 0.00 0.00 0.00 0.00 0.00 0.00 0.00 0.00 0.00 0.00 0.00 0.00 0.00 0.00 0.00 0.00 0.00 0.00 0.00 0.00 0.00 0.00 0.00 0.00 0.00 0.00 0.00 0.00 0.00
0.02 0.01 0.00 0.00 0.00 0.01 0.01 0.01 0.01 0.00 0.00 0.00 0.00 0.00 0.00 0.00 0.00 0.00 0.00 0.00 0.00 0.00 0.00 0.00 0.00 0.00 0.00 0.00 0.00 0.00 0.00 0.00 0.00 0.00 0.00 0.00 0.00 0.00 0.00 0.00 0.00 0.00 0.00 0.00
0.01 0.01 0.00 0.00 0.00 0.00 0.01 0.01 0.01 0.01 0.00 0.00 0.00 0.00 0.00 0.00 0.00 0.00 0.00 0.00 0.00 0.00 0.00 0.00 0.00 0.00 0.00 0.00 0.00 0.00 0.00 0.00 0.00 0.00 0.00 0.00 0.00 0.00 0.00 0.00 0.00 0.00 0.00 0.00
0.02 0.02 0.01 0.01 0.00 0.00 0.00 0.01 0.01 0.02 0.02 0.00 0.00 0.00 0.00 0.00 0.00 0.00 0.00 0.00 0.00 0.00 0.00 0.00 0.00 0.00 0.00 0.00 0.00 0.00 0.00 0.00 0.00 0.00 0.00 0.00 0.00 0.00 0.00 0.00 0.00 0.00 0.00 0.00
0.02 0.02 0.01 0.01 0.02 0.02 0.01 0.01 0.02 0.02 0.01 0.01 0.00 0.00 0.00 0.00 0.00 0.00 0.00 0.00 0.00 0.00 0.00 0.00 0.00 0.00 0.00 0.00 0.00 0.00 0.00 0.00 0.00 0.00 0.00 0.00 0.00 0.00 0.00 0.00 0.00 0.00 0.00 0.00
0.02 0.03 0.02 0.01 0.01 0.01 0.02 0.02 0.02 0.02 0.01 0.01 0.00 0.00 0.00 0.00 0.00 0.00 0.00 0.00 0.00 0.00 0.00 0.00 0.00 0.00 0.00 0.00 0.00 0.00 0.00 0.00 0.00 0.00 0.00 0.00 0.00 0.00 0.00 0.00 0.00 0.00 0.00 0.00
0.05 0.05 0.04 0.04 0.03 0.01 0.02 0.02 0.02 0.02 0.01 0.01 0.01 0.01 0.00 0.00 0.00 0.00 0.00 0.00 0.00 0.00 0.00 0.00 0.00 0.00 0.00 0.00 0.00 0.00 0.00 0.00 0.00 0.00 0.00 0.00 0.00 0.00 0.00 0.00 0.00 0.00 0.00 0.00
0.06 0.05 0.03 0.03 0.03 0.01 0.01 0.01 0.01 0.02 0.02 0.01 0.01 0.01 0.00 0.00 0.00 0.00 0.00 0.00 0.00 0.00 0.00 0.00 0.00 0.00 0.00 0.00 0.00 0.00 0.00 0.00 0.00 0.00 0.00 0.00 0.00 0.00 0.00 0.00 0.00 0.00 0.00 0.00
0.07 0.05 0.02 0.01 0.00 0.01 0.01 0.00 0.01 0.01 0.02 0.01 0.01 0.01 0.00 0.00 0.00 0.00 0.00 0.00 0.00 0.00 0.00 0.00 0.00 0.00 0.00 0.00 0.00 0.00 0.00 0.00 0.00 0.00 0.00 0.00 0.00 0.00 0.00 0.00 0.00 0.00 0.00 0.00
0.08 0.04 0.02 0.01 0.01 0.00 0.00 0.00 0.00 0.00 0.00 0.00 0.00 0.00 0.00 0.00 0.00 0.00 0.00 0.00 0.00 0.00 0.00 0.00 0.00 0.00 0.00 0.00 0.00 0.00 0.00 0.00 0.00 0.00 0.00 0.00 0.00 0.00 0.00 0.00 0.00 0.00 0.00 0.00
0.08 0.06 0.04 0.02 0.01 0.02 0.02 0.01 0.01 0.01 0.00 0.00 0.00 0.00 0.00 0.00 0.00 0.00 0.00 0.00 0.00 0.00 0.00 0.00 0.00 0.00 0.00 0.00 0.00 0.00 0.00 0.00 0.00 0.00 0.00 0.00 0.00 0.00 0.00 0.00 0.00 0.00 0.00 0.00
0.06 0.06 0.05 0.03 0.03 0.05 0.03 0.01 0.01 0.00 0.01 0.00 0.00 0.00 0.00 0.00 0.00 0.00 0.00 0.00 0.00 0.00 0.00 0.00 0.00 0.00 0.00 0.00 0.00 0.00 0.00 0.00 0.00 0.00 0.00 0.00 0.00 0.00 0.00 0.00 0.00 0.00 0.00 0.00
0.03 0.05 0.06 0.05 0.05 0.05 0.02 0.01 0.01 0.01 0.01 0.00 0.00 0.00 0.00 0.00 0.00 0.00 0.00 0.00 0.00 0.00 0.00 0.00 0.00 0.00 0.00 0.00 0.00 0.00 0.00 0.00 0.00 0.00 0.00 0.00 0.00 0.00 0.00 0.00 0.00 0.00 0.00 0.00
0.02 0.04 0.06 0.06 0.05 0.05 0.03 0.01 0.01 0.01 0.02 0.01 0.00 0.00 0.00 0.00 0.00 0.00 0.00 0.00 0.00 0.00 0.00 0.00 0.00 0.00 0.00 0.00 0.00 0.00 0.00 0.00 0.00 0.00 0.00 0.00 0.00 0.00 0.00 0.00 0.00 0.00 0.00 0.00
0.04 0.06 0.06 0.05 0.05 0.03 0.01 0.01 0.01 0.03 0.03 0.01 0.00 0.00 0.00 0.01 0.00 0.00 0.00 0.00 0.00 0.00 0.00 0.00 0.00 0.00 0.00 0.00 0.00 0.00 0.00 0.00 0.00 0.00 0.00 0.00 0.00 0.00 0.00 0.00 0.00 0.00 0.00 0.00
0.03 0.04 0.03 0.03 0.04 0.03 0.01 0.01 0.02 0.03 0.01 0.01 0.01 0.01 0.01 0.01 0.00 0.00 0.00 0.00 0.00 0.00 0.00 0.00 0.00 0.00 0.00 0.00 0.00 0.00 0.00 0.00 0.00 0.00 0.00 0.00 0.00 0.00 0.00 0.00 0.00 0.00 0.00 0.00
0.02 0.03 0.03 0.03 0.03 0.02 0.01 0.01 0.01 0.01 0.02 0.02 0.01 0.01 0.01 0.01 0.01 0.01 0.00 0.00 0.00 0.00 0.00 0.00 0.00 0.00 0.00 0.00 0.00 0.00 0.00 0.00 0.00 0.00 0.00 0.00 0.00 0.00 0.00 0.00 0.00 0.00 0.00 0.00
0.01 0.01 0.01 0.02 0.01 0.01 0.01 0.00 0.00 0.01 0.02 0.02 0.01 0.01 0.01 0.01 0.01 0.01 0.01 0.00 0.00 0.00 0.00 0.00 0.00 0.00 0.00 0.00 0.00 0.00 0.00 0.00 0.00 0.00 0.00 0.00 0.00 0.00 0.00 0.00 0.00 0.00 0.00 0.01
0.01 0.01 0.01 0.01 0.01 0.01 0.00 0.00 0.00 0.01 0.01 0.01 0.01 0.01 0.01 0.01 0.01 0.00 0.00 0.00 0.00 0.00 0.00 0.00 0.00 0.00 0.00 0.00 0.00 0.00 0.00 0.00 0.00 0.00 0.00 0.00 0.00 0.00 0.00 0.00 0.00 0.00 0.01 0.02
0.01 0.01 0.01 0.02 0.01 0.01 0.01 0.01 0.01 0.00 0.01 0.01 0.00 0.01 0.01 0.01 0.00 0.00 0.00 0.00 0.00 0.00 0.00 0.00 0.00 0.00 0.00 0.00 0.00 0.00 0.00 0.00 0.00 0.00 0.00 0.00 0.00 0.00 0.00 0.00 0.00 0.00 0.01 0.02
MSLP
1008.66 1008.52 1008.21 1007.83 1007.47 1007.20 1007.07 1007.10 1007.24 1007.44 1007.61 1007.70 1007.63 1007.41 1007.04 1006.57 1006.09 1005.65 1005.33 1005.17 1005.20 1005.41 1005.81 1006.35 1007.01 1007.77 1008.60 1009.48 1010.39 1011.32 1012.24 1013.15 1014.01 1014.81 1015.54 1016.19 1016.77 1017.28 1017.74 1018.14 1018.50 1018.82 1019.10 1019.34
1008.35 1008.13 1007.75 1007.31 1006.92 1006.65 1006.56 1006.65 1006.87 1007.13 1007.35 1007.45 1007.36 1007.08 1006.63 1006.06 1005.47 1004.94 1004.54 1004.34 1004.36 1004.59 1005.01 1005.60 1006.31 1007.10 1007.96 1008.86 1009.79 1010.74 1011.69 1012.63 1013.54 1014.40 1015.20 1015.92 1016.57 1017.13 1017.63 1018.07 1018.46 1018.80 1019.09 1019.35
1007.74 1007.51 1007.12 1006.71 1006.36 1006.16 1006.16 1006.34 1006.64 1006.95 1007.19 1007.26 1007.11 1006.73 1006.15 1005.46 1004.75 1004.12 1003.66 1003.43 1003.45 1003.71 1004.19 1004.83 1005.60 1006.44 1007.34 1008.26 1009.20 1010.16 1011.12 1012.08 1013.01 1013.91 1014.75 1015.53 1016.23 1016.86 1017.41 1017.90 1018.33 1018.71 1019.05 1019.33
1006.85 1006.66 1006.35 1006.05 1005.83 1005.78 1005.92 1006.22 1006.59 1006.95 1007.17 1007.17 1006.92 1006.40 1005.67 1004.82 1003.98 1003.26 1002.74 1002.48 1002.52 1002.83 1003.37 1004.09 1004.92 1005.82 1006.76 1007.70 1008.65 1009.60 1010.56 1011.51 1012.44 1013.35 1014.22 1015.03 1015.77 1016.45 1017.07 1017.61 1018.11 1018.55 1018.93 1019.28
1005.73 1005.64 1005.49 1005.36 1005.35 1005.51 1005.82 1006.26 1006.72 1007.09 1007.27 1007.19 1006.79 1006.11 1005.21 1004.21 1003.23 1002.41 1001.83 1001.57 1001.63 1001.99 1002.60 1003.40 1004.30 1005.26 1006.23 1007.20 1008.15 1009.08 1010.01 1010.93 1011.85 1012.74 1013.61 1014.44 1015.22 1015.94 1016.61 1017.22 1017.78 1018.29 1018.74 1019.15
1004.51 1004.55 1004.58 1004.68 1004.91 1005.30 1005.81 1006.38 1006.92 1007.30 1007.43 1007.23 1006.69 1005.84 1004.78 1003.63 1002.54 1001.64 1001.02 1000.75 1000.84 1001.25 1001.93 1002.80 1003.76 1004.77 1005.77 1006.75 1007.68 1008.59 1009.49 1010.37 1011.25 1012.12 1012.98 1013.81 1014.61 1015.36 1016.08 1016.75 1017.37 1017.95 1018.47 1018.94
1003.32 1003.48 1003.70 1004.03 1004.49 1005.08 1005.77 1006.47 1007.06 1007.43 1007.50 1007.20 1006.53 1005.55 1004.36 1003.11 1001.94 1000.99 1000.36 1000.10 1000.22 1000.68 1001.41 1002.32 1003.33 1004.36 1005.37 1006.34 1007.26 1008.13 1008.98 1009.83 1010.67 1011.50 1012.34 1013.17 1013.98 1014.76 1015.51 1016.23 1016.91 1017.55 1018.14 1018.67
1002.30 1002.55 1002.90 1003.40 1004.03 1004.79 1005.60 1006.38 1006.99 1007.34 1007.35 1006.97 1006.22 1005.17 1003.92 1002.63 1001.45 1000.51 999.90 999.67 999.83 1000.32 1001.07 1002.00 1003.01 1004.03 1005.03 1005.96 1006.84 1007.68 1008.48 1009.28 1010.08 1010.90 1011.72 1012.54 1013.36 1014.16 1014.95 1015.70 1016.43 1017.12 1017.76 1018.34
1001.56 1001.82 1002.23 1002.81 1003.53 1004.36 1005.22 1006.00 1006.60 1006.92 1006.88 1006.47 1005.70 1004.65 1003.44 1002.20 1001.09 1000.22 999.68 999.51 999.70 1000.20 1000.95 1001.85 1002.82 1003.80 1004.73 1005.61 1006.43 1007.22 1007.98 1008.74 1009.51 1010.30 1011.11 1011.93 1012.76 1013.58 1014.39 1015.18 1015.94 1016.67 1017.35 1017.97
1001.18 1001.37 1001.74 1002.28 1002.98 1003.77 1004.58 1005.31 1005.85 1006.13 1006.07 1005.67 1004.95 1004.00 1002.91 1001.83 1000.87 1000.14 999.72 999.63 999.86 1000.36 1001.07 1001.91 1002.79 1003.67 1004.51 1005.30 1006.04 1006.75 1007.46 1008.18 1008.93 1009.71 1010.51 1011.34 1012.18 1013.02 1013.85 1014.66 1015.45 1016.21 1016.92 1017.58
1001.17 1001.21 1001.44 1001.86 1002.42 1003.07 1003.74 1004.35 1004.80 1005.02 1004.97 1004.64 1004.05 1003.28 1002.41 1001.56 1000.84 1000.32 1000.05 1000.06 1000.33 1000.82 1001.46 1002.18 1002.94 1003.68 1004.38 1005.05 1005.68 1006.32 1006.96 1007.64 1008.37 1009.13 1009.94 1010.77 1011.62 1012.47 1013.32 1014.15 1014.95 1015.73 1016.47 1017.15
1001.48 1001.33 1001.36 1001.56 1001.91 1002.35 1002.83 1003.27 1003.61 1003.79 1003.76 1003.54 1003.14 1002.61 1002.03 1001.48 1001.03 1000.75 1000.67 1000.80 1001.11 1001.56 1002.10 1002.69 1003.29 1003.86 1004.40 1004.92 1005.43 1005.97 1006.54 1007.17 1007.86 1008.61 1009.41 1010.24 1011.09 1011.95 1012.80 1013.64 1014.45 1015.24 1015.99 1016.70
1002.04 1001.68 1001.48 1001.44 1001.53 1001.73 1001.99 1002.26 1002.49 1002.63 1002.66 1002.57 1002.39 1002.13 1001.87 1001.64 1001.50 1001.47 1001.58 1001.82 1002.15 1002.56 1003.01 1003.45 1003.87 1004.26 1004.63 1004.99 1005.36 1005.79 1006.27 1006.84 1007.48 1008.20 1008.97 1009.79 1010.63 1011.47 1012.31 1013.15 1013.96 1014.75 1015.51 1016.23
1002.75 1002.20 1001.79 1001.51 1001.37 1001.34 1001.40 1001.51 1001.65 1001.77 1001.87 1001.93 1001.97 1001.99 1002.03 1002.11 1002.25 1002.46 1002.74 1003.07 1003.43 1003.80 1004.14 1004.44 1004.69 1004.91 1005.10 1005.31 1005.55 1005.86 1006.25 1006.73 1007.31 1007.98 1008.71 1009.48 1010.28 1011.10 1011.91 1012.72 1013.51 1014.29 1015.04 1015.75
1003.48 1002.80 1002.23 1001.77 1001.45 1001.25 1001.16 1001.16 1001.24 1001.38 1001.55 1001.76 1002.00 1002.26 1002.56 1002.90 1003.28 1003.68 1004.10 1004.51 1004.88 1005.20 1005.45 1005.63 1005.74 1005.81 1005.86 1005.93 1006.04 1006.24 1006.53 1006.93 1007.42 1008.01 1008.67 1009.38 1010.12 1010.88 1011.64 1012.40 1013.16 1013.90 1014.62 1015.32
1004.15 1003.40 1002.75 1002.20 1001.78 1001.49 1001.33 1001.29 1001.36 1001.53 1001.79 1002.12 1002.51 1002.96 1003.46 1003.99 1004.53 1005.07 1005.57 1006.02 1006.40 1006.68 1006.87 1006.95 1006.97 1006.93 1006.87 1006.84 1006.85 1006.95 1007.14 1007.44 1007.85 1008.34 1008.91 1009.53 1010.19 1010.87 1011.56 1012.25 1012.94 1013.62 1014.30 1014.95
1004.69 1003.95 1003.29 1002.75 1002.32 1002.03 1001.88 1001.87 1001.98 1002.21 1002.54 1002.97 1003.47 1004.03 1004.64 1005.27 1005.90 1006.51 1007.05 1007.52 1007.89 1008.15 1008.29 1008.34 1008.29 1008.20 1008.08 1007.98 1007.92 1007.94 1008.05 1008.26 1008.57 1008.96 1009.43 1009.95 1010.50 1011.09 1011.68 1012.29 1012.89 1013.50 1014.10 1014.68
1005.07 1004.40 1003.82 1003.35 1003.02 1002.82 1002.75 1002.82 1003.01 1003.31 1003.71 1004.20 1004.75 1005.36 1006.00 1006.65 1007.29 1007.89 1008.43 1008.89 1009.25 1009.49 1009.63 1009.66 1009.61 1009.50 1009.37 1009.24 1009.15 1009.12 1009.16 1009.30 1009.51 1009.80 1010.16 1010.57 1011.02 1011.50 1011.99 1012.50 1013.01 1013.52 1014.02 1014.51
1005.33 1004.77 1004.32 1004.00 1003.81 1003.75 1003.83 1004.02 1004.31 1004.69 1005.14 1005.64 1006.20 1006.78 1007.38 1007.99 1008.57 1009.13 1009.62 1010.05 1010.39 1010.63 1010.78 1010.83 1010.81 1010.72 1010.61 1010.49 1010.39 1010.33 1010.33 1010.40 1010.54 1010.74 1011.00 1011.31 1011.66 1012.03 1012.43 1012.83 1013.23 1013.64 1014.04 1014.43
1005.53 1005.11 1004.82 1004.67 1004.67 1004.79 1005.02 1005.34 1005.74 1006.18 1006.65 1007.15 1007.66 1008.17 1008.69 1009.20 1009.69 1010.15 1010.59 1010.96 1011.28 1011.52 1011.69 1011.77 1011.79 1011.75 1011.67 1011.58 1011.49 1011.42 1011.39 1011.41 1011.49 1011.62 1011.80 1012.03 1012.29 1012.57 1012.87 1013.17 1013.48 1013.78 1014.08 1014.36
1005.79 1005.51 1005.39 1005.42 1005.60 1005.89 1006.27 1006.71 1007.19 1007.67 1008.15 1008.60 1009.04 1009.45 1009.85 1010.23 1010.61 1010.97 1011.31 1011.63 1011.92 1012.15 1012.33 1012.45 1012.51 1012.51 1012.47 1012.41 1012.33 1012.26 1012.21 1012.20 1012.24 1012.31 1012.44 1012.60 1012.79 1012.99 1013.21 1013.43 1013.65 1013.86 1014.06 1014.24
1006.19 1006.06 1006.10 1006.30 1006.63 1007.06 1007.56 1008.09 1008.62 1009.11 1009.55 1009.94 1010.28 1010.57 1010.84 1011.09 1011.34 1011.59 1011.85 1012.10 1012.34 1012.56 1012.74 1012.87 1012.95 1012.98 1012.96 1012.91 1012.84 1012.77 1012.71 1012.68 1012.69 1012.73 1012.81 1012.92 1013.06 1013.21 1013.37 1013.52 1013.66 1013.79 1013.90 1014.00
1006.84 1006.85 1007.03 1007.35 1007.80 1008.33 1008.90 1009.47 1010.00 1010.46 1010.84 1011.14 1011.37 1011.55 1011.69 1011.81 1011.94 1012.08 1012.25 1012.43 1012.62 1012.79 1012.95 1013.07 1013.15 1013.17 1013.15 1013.10 1013.02 1012.94 1012.87 1012.82 1012.81 1012.83 1012.89 1012.97 1013.07 1013.19 1013.29 1013.39 1013.47 1013.53 1013.57 1013.60
1007.76 1007.90 1008.20 1008.62 1009.14 1009.72 1010.30 1010.85 1011.34 1011.73 1012.03 1012.22 1012.34 1012.39 1012.41 1012.43 1012.45 1012.49 1012.57 1012.67 1012.79 1012.92 1013.03 1013.10 1013.14 1013.14 1013.09 1013.01 1012.91 1012.81 1012.72 1012.66 1012.63 1012.64 1012.69 1012.76 1012.84 1012.92 1012.99 1013.04 1013.06 1013.07 1013.06 1013.04
1008.95 1009.22 1009.60 1010.08 1010.63 1011.19 1011.73 1012.22 1012.62 1012.91 1013.10 1013.19 1013.19 1013.14 1013.05 1012.96 1012.89 1012.85 1012.84 1012.87 1012.91 1012.97 1013.01 1013.02 1012.99 1012.93 1012.83 1012.71 1012.58 1012.45 1012.35 1012.27 1012.24 1012.25 1012.29 1012.35 1012.41 1012.47 1012.51 1012.52 1012.50 1012.46 1012.41 1012.35
1010.34 1010.71 1011.16 1011.66 1012.18 1012.68 1013.14 1013.52 1013.80 1013.97 1014.04 1014.01 1013.91 1013.76 1013.59 1013.41 1013.27 1013.15 1013.07 1013.02 1012.99 1012.96 1012.91 1012.85 1012.75 1012.61 1012.46 1012.28 1012.11 1011.96 1011.84 1011.76 1011.73 1011.74 1011.78 1011.83 1011.88 1011.92 1011.93 1011.91 1011.85 1011.77 1011.68 1011.60
Thickness
5584 5583 5589 5600 5607 5616 5622 5622 5627 5633 5638 5635 5632 5638 5647 5655 5657 5658 5661 5663 5664 5665 5668 5667 5665 5662 5659 5655 5651 5647 5644 5641 5639 5636 5633 5630 5628 5627 5626 5626 5624 5623 5622 5621
5573 5578 5595 5602 5605 5607 5610 5612 5617 5621 5628 5626 5626 5632 5644 5650 5654 5657 5658 5659 5660 5661 5661 5661 5659 5656 5653 5649 5645 5642 5638 5635 5633 5630 5627 5624 5622 5620 5619 5618 5616 5615 5613 5612
5572 5585 5593 5594 5597 5598 5601 5604 5610 5610 5613 5616 5615 5620 5635 5647 5652 5655 5657 5658 5658 5657 5655 5653 5652 5650 5647 5643 5640 5637 5633 5629 5626 5624 5620 5617 5614 5611 5609 5608 5607 5606 5605 5603
5566 5580 5584 5585 5589 5592 5590 5603 5605 5603 5595 5595 5605 5597 5630 5641 5644 5647 5648 5649 5651 5653 5652 5649 5646 5643 5640 5637 5634 5631 5626 5623 5620 5617 5614 5610 5606 5602 5601 5600 5598 5597 5596 5594
5559 5570 5572 5576 5583 5587 5587 5595 5596 5593 5588 5587 5597 5591 5615 5635 5634 5639 5642 5644 5645 5646 5645 5643 5641 5637 5633 5629 5626 5623 5619 5616 5613 5610 5607 5603 5599 5597 5594 5592 5589 5587 5586 5584
5552 5563 5567 5571 5576 5579 5578 5580 5580 5579 5573 5564 5589 5588 5603 5624 5632 5635 5637 5638 5638 5638 5637 5636 5633 5630 5625 5621 5617 5614 5612 5608 5606 5603 5599 5596 5592 5589 5586 5583 5580 5578 5577 5575
5538 5548 5557 5562 5559 5563 5565 5557 5546 5544 5544 5559 5594 5590 5599 5621 5630 5632 5631 5631 5630 5630 5628 5626 5623 5620 5616 5612 5609 5606 5604 5600 5598 5594 5591 5588 5585 5582 5578 5575 5572 5570 5568 5566
5522 5528 5543 5550 5553 5551 5553 5556 5547 5544 5550 5569 5585 5583 5597 5615 5621 5624 5624 5623 5622 5620 5618 5617 5615 5611 5607 5604 5600 5598 5595 5592 5589 5586 5583 5580 5577 5574 5570 5567 5564 5562 5559 5557
5518 5525 5538 5544 5549 5549 5543 5546 5561 5556 5560 5558 5571 5584 5592 5603 5605 5608 5609 5609 5608 5608 5608 5606 5604 5601 5597 5594 5591 5589 5586 5583 5580 5577 5574 5571 5568 5565 5562 5559 5556 5553 5550 5548
5515 5510 5522 5529 5534 5537 5542 5546 5539 5536 5541 5551 5572 5579 5580 5585 5590 5595 5595 5595 5595 5595 5595 5594 5592 5590 5587 5584 5581 5579 5577 5574 5571 5568 5565 5563 5559 5556 5552 5549 5546 5544 5541 5538
5504 5497 5503 5511 5517 5523 5527 5531 5535 5535 5541 5546 5556 5567 5583 5583 5585 5584 5584 5583 5582 5582 5581 5581 5580 5578 5576 5573 5570 5568 5566 5563 5560 5558 5554 5551 5548 5545 5542 5539 5536 5534 5531 5528
5494 5489 5487 5500 5513 5519 5523 5528 5527 5522 5527 5540 5543 5549 5572 5573 5573 5573 5572 5571 5571 5569 5568 5568 5567 5566 5564 5561 5559 5557 5555 5552 5549 5547 5543 5540 5538 5535 5532 5528 5526 5523 5520 5517
5478 5474 5474 5480 5486 5494 5502 5513 5519 5519 5522 5526 5530 5540 5556 5558 5558 5560 5559 5557 5557 5556 5555 5554 5553 5552 5551 5550 5548 5545 5543 5540 5538 5535 5532 5529 5526 5523 5520 5517 5515 5512 5509 5505
5471 5462 5470 5479 5488 5488 5490 5500 5506 5505 5504 5516 5530 5536 5540 5543 5544 5544 5544 5544 5542 5541 5542 5541 5539 5538 5538 5536 5535 5533 5530 5528 5526 5523 5519 5517 5514 5511 5509 5506 5503 5500 5497 5493
5454 5452 5462 5476 5488 5490 5490 5494 5497 5497 5504 5507 5524 5529 5532 5532 5532 5531 5531 5530 5529 5528 5528 5528 5526 5524 5523 5522 5521 5519 5517 5515 5513 5510 5507 5505 5502 5500 5497 5494 5491 5488 5485 5482
5440 5443 5450 5459 5473 5478 5481 5487 5491 5495 5500 5505 5511 5514 5522 5523 5522 5521 5518 5518 5515 5514 5514 5514 5513 5511 5508 5507 5506 5505 5503 5502 5500 5497 5494 5492 5490 5487 5484 5481 5479 5476 5472 5470
5426 5430 5439 5447 5456 5458 5457 5473 5481 5485 5492 5495 5495 5500 5504 5504 5505 5506 5506 5505 5503 5501 5500 5499 5497 5495 5494 5492 5492 5490 5489 5488 5486 5483 5482 5480 5477 5474 5471 5469 5467 5463 5461 5458
5416 5421 5427 5433 5440 5439 5454 5467 5474 5476 5475 5478 5481 5485 5488 5488 5488 5489 5490 5489 5488 5488 5486 5484 5482 5481 5479 5479 5478 5477 5476 5474 5472 5470 5468 5466 5464 5461 5459 5456 5454 5452 5449 5447
5416 5414 5419 5423 5429 5436 5447 5452 5456 5458 5456 5461 5466 5469 5471 5474 5473 5471 5474 5474 5472 5471 5471 5469 5468 5467 5466 5465 5464 5463 5461 5459 5458 5456 5455 5453 5451 5449 5446 5444 5442 5440 5438 5436
5407 5406 5407 5416 5422 5426 5432 5440 5447 5449 5440 5449 5452 5454 5456 5460 5453 5451 5456 5457 5457 5456 5456 5454 5453 5453 5451 5450 5450 5448 5446 5445 5444 5443 5442 5440 5438 5436 5434 5432 5431 5429 5427 5426
5390 5393 5397 5404 5408 5411 5417 5428 5437 5428 5425 5435 5439 5440 5440 5439 5437 5437 5440 5440 5440 5440 5440 5439 5439 5437 5436 5436 5435 5434 5432 5431 5431 5430 5429 5428 5426 5424 5423 5421 5420 5418 5417 5416
5383 5386 5388 5395 5397 5397 5405 5414 5411 5409 5417 5420 5422 5423 5423 5422 5424 5424 5424 5423 5423 5423 5424 5423 5422 5421 5421 5422 5421 5419 5417 5418 5418 5418 5417 5415 5414 5413 5412 5410 5409 5407 5406 5406
5378 5380 5382 5384 5386 5391 5395 5397 5400 5403 5403 5405 5406 5407 5407 5407 5407 5408 5407 5406 5406 5407 5407 5407 5407 5406 5406 5406 5406 5404 5404 5405 5405 5405 5404 5403 5402 5401 5399 5398 5397 5396 5395 5395
5373 5379 5378 5375 5378 5382 5384 5385 5387 5389 5389 5391 5392 5392 5393 5392 5392 5392 5391 5391 5391 5391 5391 5392 5392 5391 5391 5391 5391 5391 5392 5392 5392 5392 5391 5391 5390 5389 5388 5387 5386 5385 5384 5384
5363 5366 5366 5365 5365 5368 5372 5372 5373 5375 5376 5376 5377 5378 5377 5378 5378 5377 5376 5376 5376 5377 5377 5377 5377 5376 5377 5377 5378 5378 5379 5379 5379 5379 5379 5378 5378 5377 5376 5376 5375 5375 5375 5374
5345 5347 5352 5352 5354 5355 5356 5359 5362 5361 5361 5361 5362 5363 5364 5364 5364 5363 5362 5362 5363 5363 5363 5363 5363 5363 5363 5364 5364 5365 5365 5366 5366 5366 5366 5366 5365 5365 5365 5365 5365 5366 5366 5367